Flag Weather past 2 weeks in Herrenberg, Baden-Württemberg, Germany

Now
54 °F

Sunny.


Feels Like: 53 °F
Forecast: 46 / 56 °F
Wind: 3 mph from East

Location: Stuttgart-Echterdingen

Current Time: Nov 23, 2014 at 4:00:09 PM

Latest Report: Nov 23, 2014 at 3:20 PM


Visibility: 10 mi

Pressure: 30.12 "Hg

Humidity: 77%

Dew point: 46 °F

Location of HerrenbergLocation

Historic Weather in Herrenberg — Graph

°F

Herrenberg temperature yesterday

Maximum temperature yesterday: 57 °F (at 2:20 PM)
Minimum temperature yesterday: 39 °F (at 11:20 PM)
Average temperature yesterday: 46 °F

Past Weeks' High & Low Weather Summary

 TemperatureHumidityPressure
High57 °F (Nov 22, 2:20 PM)100% (Nov 9, 3:50 AM)30.30 "Hg (Nov 9, 3:50 AM)
Low34 °F (Nov 9, 7:50 AM)55% (Nov 8, 2:50 PM)29.53 "Hg (Nov 15, 10:20 PM)
Average44 °F92%29.88 "Hg
* Reported Nov 8 2:20 PM — Nov 23 2:50 PM, Herrenberg, Weather by CustomWeather, © 2014

Note: Actual official high and low records may vary slightly from our data, if they occured in-between our weather recording intervals... More about our weather records

Advertising

Herrenberg weather history for previous 24 hours

 ConditionsComfort  
Time TempWeatherWind HumidityBarometerVisibility
2:50 PM
Nov 23
54 °FSunny.3 mph77%30.12 "Hg10 mi
2:20 PM54 °FSunny.2 mph77%30.12 "Hg10 mi
1:50 PM54 °FSunny.2 mph72%30.12 "Hg10 mi
1:20 PM52 °FSunny.3 mph77%30.15 "Hg10 mi
12:50 PM50 °FSunny.5 mph88%30.15 "Hg10 mi
12:20 PM50 °FSunny.2 mph82%30.15 "Hg10 mi
11:50 AM48 °FSunny.3 mph87%30.18 "Hg10 mi
11:20 AM46 °FSunny.2 mph93%30.18 "Hg10 mi
10:50 AM45 °FSunny.2 mph93%30.21 "Hg10 mi
10:20 AM43 °FSunny.2 mph100%30.21 "Hg10 mi
9:50 AM41 °FScattered clouds.1 mph100%30.18 "HgN/A
9:20 AM36 °FScattered clouds.1 mph100%30.18 "Hg1 mi
8:50 AM34 °FFog.1 mph100%30.18 "Hg0 mi
8:20 AM34 °FFog.2 mph100%30.18 "Hg0 mi
7:50 AM34 °FFog.2 mph100%30.18 "Hg0 mi
7:20 AM36 °FFog.No wind100%30.18 "Hg1 mi
6:50 AM36 °FFog.1 mph100%30.18 "Hg1 mi
6:20 AM36 °FFog.1 mph100%30.18 "Hg0 mi
5:50 AM36 °FFog.No wind100%30.18 "Hg0 mi
5:20 AM36 °FFog.2 mph100%30.18 "Hg0 mi
4:50 AM37 °FFog.1 mph100%30.18 "Hg0 mi
4:20 AM36 °FFog.1 mph100%30.15 "Hg1 mi
3:50 AM37 °FFog.5 mph100%30.15 "Hg1 mi
3:20 AM36 °FFog.3 mph100%30.18 "Hg1 mi
2:50 AM36 °FFog.2 mph100%30.18 "Hg1 mi
2:20 AM36 °FLight fog.2 mph100%30.18 "Hg1 mi
1:50 AM37 °FLight fog.1 mph100%30.18 "Hg1 mi
1:20 AM37 °FLight fog.1 mph100%30.18 "Hg1 mi
12:20 AM39 °FLight fog.1 mph100%30.18 "Hg2 mi
11:50 PM
Nov 22
39 °FLight fog.2 mph100%30.18 "Hg3 mi
11:20 PM39 °FClear.1 mph100%30.18 "Hg5 mi
10:50 PM41 °FClear.2 mph93%30.18 "Hg10 mi
10:20 PM41 °FClear.1 mph93%30.18 "Hg10 mi
9:50 PM43 °FClear.1 mph93%30.18 "Hg10 mi
9:20 PM43 °FClear.1 mph93%30.18 "Hg10 mi
8:50 PM45 °FClear.1 mph93%30.15 "Hg10 mi
8:20 PM45 °FClear.3 mph93%30.15 "Hg10 mi
7:50 PM46 °FClear.1 mph93%30.15 "Hg10 mi
7:20 PM46 °FClear.1 mph93%30.15 "Hg10 mi
6:50 PM48 °FClear.3 mph87%30.15 "Hg10 mi
6:20 PM48 °FClear.2 mph87%30.15 "Hg10 mi
5:50 PM48 °FClear.2 mph87%30.15 "Hg10 mi
5:20 PM50 °FClear.No wind88%30.15 "Hg10 mi
4:50 PM50 °FClear.1 mph82%30.15 "Hg10 mi
4:20 PM52 °FSunny.1 mph82%30.12 "Hg10 mi
Weather by CustomWeather, © 2014

See weather overviewHow to use our weather pages